Regional Weather Roundup
Issued by NWS Wakefield, VA

Home | Current Version | Previous Version | Graphics & Text | Print | Product List | Glossary On
Versions: 1 2 3 4 5 6 7 8 9 10 11 12 13 14 15 16 17 18 19 20 21 22 23 24 25 26 27 28 29 30 31 32 33 34 35 36 37 38 39 40 41 42 43 44 45 46 47 48 49 50
000
ASUS41 KAKQ 230310
RWRAKQ

REGIONAL WEATHER ROUNDUP
NATIONAL WEATHER SERVICE WAKEFIELD VA
1100 PM EDT TUE JUL 22 2014

Note: "fair" indicates few or no clouds below 12,000 feet with no
significant weather and/or obstructions to visibility. * = Denotes
station may not report precipitation (e.g., rain,snow,etc.),
thunder or fog.

VAZ042-051-052>054-056-230400-
NORTHERN VIRGINIA

CITY           SKY/WX    TMP DP  RH WIND       PRES   REMARKS
WASH NATIONAL  CLEAR     79  67  66 S9        30.09F
DULLES         PTCLDY    75  69  81 S5        30.09F
FORT BELVOIR   CLEAR     73  69  90 CALM      30.09F
QUANTICO       CLEAR     79  70  74 S12       30.10S
FREDERICKSBRG* CLEAR     75  72  88 CALM      30.09S
STAFFORD*      CLEAR     71  71 100 CALM      30.13F
WARRENTON      CLEAR     72  72 100 CALM      30.09F FOG
CULPEPER*      CLEAR    N/A N/A N/A CALM      30.10S
MANASSAS*      CLEAR     73  73 100 S3        30.09
LEESBURG*      CLEAR     77  73  88 S5        30.10S
WINCHESTER     CLEAR     77  70  78 S6        30.09F
$$

VAZ048-049-060>072-079>083-230400-
CENTRAL AND SOUTH CENTRAL VIRGINIA...AND NORTH CENTRAL NORTH CAROLINA

CITY           SKY/WX    TMP DP  RH WIND       PRES   REMARKS
RICHMOND       PTCLDY    76  69  79 SE3       30.09S
CHESTERFIELD*  CLEAR     73  61  64 SE5       30.11F
HANOVER        CLEAR     74  68  81 CALM      30.11S
TAPPAHANNOCK*  CLEAR     74  67  80 CALM      30.10S
CHARLOTTSVILLE CLOUDY    75  70  84 CALM      30.10S
ORANGE*        CLEAR     72  70  94 CALM      30.11S
LOUISA*        CLEAR     70  66  88 CALM      30.09F FOG
FARMVILLE*     MOCLDY    75  72  88 CALM      30.09S
SOUTH HILL*    CLEAR     73  73 100 CALM      30.16S
ROANOKE RAPIDS CLEAR     68  64  88 CALM      30.10S
RALEIGH        PTCLDY    75  71  87 CALM      30.11S
$$

VAZ088>098-230400-
SOUTHEAST VIRGINIA

CITY           SKY/WX    TMP DP  RH WIND       PRES   REMARKS
NORFOLK        CLEAR     76  72  87 SE5       30.09F
VIRGINIA BEACH PTCLDY    75  73  93 S5        30.08F
NORFOLK NAVAL  PTCLDY    77  72  84 CALM      30.11S
WEST POINT*    CLEAR     76  71  84 SE5       30.11S
NEWPORT NEWS   CLEAR     78  73  84 SE3       30.09F
LANGLEY AFB    CLEAR     76  76 100 SE5       30.09S
FORT EUSTIS    PTCLDY    76  76 100 SE3       30.08S
WILLIAMSBURG*  CLEAR     75  73  94 SE3       30.10S
FRANKLIN*      CLEAR     73 N/A N/A CALM      30.10S
WAKEFIELD      CLEAR     76  71  85 CALM      30.10S
$$

VAZ020-022-025-037-045-230400-
WESTERN AND SOUTHWEST VIRGINIA

CITY           SKY/WX    TMP DP  RH WIND       PRES   REMARKS
STAUNTON*      CLEAR     74  68  82 CALM      30.14F
HOT SPRINGS VA CLEAR     66  62  87 S8        30.28F
LYNCHBURG      CLEAR     71  69  93 CALM      30.14S
DANVILLE       CLEAR     74  70  87 CALM      30.12R
MARTINSVILLE   CLEAR     71  70  96 CALM      30.16R
ROANOKE        PTCLDY    76  69  79 E6        30.15S
BLACKSBURG     CLEAR     70  70 100 CALM      30.21S
DUBLIN*        CLEAR     72  69  88 SW3       30.20S
MARION*        CLEAR     70  68  94 CALM      30.23S
HILLSVILLE*    CLEAR     69  66  92 S3        30.22S
RICHLANDS*     PTCLDY    76  65  68 SE5       30.20S
WISE*          PTCLDY    70  68  94 CALM      30.21S
ABINGDON*      MOCLDY    74  69  82 CALM      30.18R
$$

MDZ021>025-VAZ099-100-230400-
SOUTHERN MARYLAND AND THE DELMARVA PENINSULA

CITY           SKY/WX    TMP DP  RH WIND       PRES   REMARKS
PATUXENT RIVER PTCLDY    74  67  78 CALM      30.10S
BAY BRIDGE APT   N/A     77  64  65 S3        30.09S
LEONARDTOWN    CLEAR     72  66  83 CALM      30.12S
DOVER          PTCLDY    72  66  82 S3        30.08F
GEORGETOWN     CLEAR     71  67  87 SE6       30.10F
EASTON         CLEAR     75  65  70 CALM      30.13
CAMBRIDGE      CLEAR     73  63  68 CALM      30.10S
SALISBURY      NOT AVBL
OCEAN CITY     CLEAR     72  69  90 S3        30.10F
WALLOPS ISLAND CLEAR     74  71  91 S6        30.11S
ACCOMACK*        N/A     72  68  88 CALM      30.10F
$$

NCZ012>017-030>032-230400-
EASTERN NORTH CAROLINA

CITY           SKY/WX    TMP DP  RH WIND       PRES   REMARKS
ELIZABETH CITY PTCLDY    74  73  97 CALM      30.10S
AHOSKIE*       PTCLDY    72  70  95 CALM      30.11R
EDENTON*       PTCLDY    76  74  96 S5        30.10S
CURRITUCK*     PTCLDY    76  69  80 CALM      30.11S
KILL DEVIL HLS PTCLDY    76  74  92 S3        30.09F
MANTEO         NOT AVBL
CAPE HATTERAS  MOCLDY    78  75  90 SW6       30.11F
GOLDSBORO      CLOUDY    76  76  99 SE2       30.08S
WASHINGTON     MOCLDY    74  73  96 CALM      30.11R
GREENVILLE     PTCLDY    77  75  94 CALM      30.11S
NEW BERN       CLOUDY    79  75  89 S6        30.11S
WILMINGTON     MOCLDY    77  74  90 S3        30.10S
$$

VAZ048-230400-
ELSEWHERE

CITY           SKY/WX    TMP DP  RH WIND       PRES   REMARKS
HARRISBURG PA  PTCLDY    79  69  71 S8        30.07S
BALTIMORE      CLEAR     75  64  68 S3        30.08S
ANNAPOLIS      CLEAR     77  67  71 S5        30.09S
ANDREWS AFB    CLEAR     73  67  83 S7        30.09F
WILMINGTON DE  CLEAR     76  70  82 S8        30.10S
PHILADELPHIA   CLEAR     76  56  49 SW7       30.09F
WILDWOOD NJ*   PTCLDY    72  64  78 S6        30.11F
ATLANTIC CITY  PTCLDY    72  68  87 S5        30.10F
HENDERSON NC   PTCLDY    73  71  92 CALM      30.11S
GREENSBORO     PTCLDY    73  70  90 CALM      30.12S
ROCKY MOUNT    PTCLDY    73  72  96 CALM      30.10S
FAYETTEVILLE   CLOUDY    78  74  87 NE3       30.09S
CHARLOTTE      MOCLDY    74  71  91 SW3       30.14R
$$

VAZ100-230400-
MARINE

STATION/POSITION TIME  TEMP    WIND        PRES    WAVE   SWELL
                       AIR SEA DIR/SP/G            HT/PER HT/PER
                 (UTC) (F)     (DEG/KT/KT) (MB)    (FT/S) (FT/S)
44066 TX TWR #4  0300   73 74  220/ 10/ 12 1019.1F   2/ 7   2/ 7
CAPE MAY NJ      0300   72 76  170/  5/  7 1019.0F
LEWES DE         0300   73 70  160/  2/  3 1018.8F
15NM E FENWICK I 0300   75 76              1019.7F   2/ 8
OCEAN-CITY-INLET 0300   73 73  190/  4/  5 1019.1F
WACHAPREAGUE VA  0300   75 82  110/  2/  3 1019.1S
THOMAS POINT MD  0300   79 80  190/ 14/ 14 1019.2F
COVE POINT MD    0300   77     220/  6/  7 1018.9F
SOLOMONS ISLAND  0300      81                N/A
BISHOPS HEAD MD  0300   77 81  150/ 11/ 14 1018.5F
PINEY POINT MD   0300          180/  9/ 10   N/A
CAMBRIDGE MD     0300   76 80  150/  1/  2 1018.9F
LEWISETTA VA     0300   76 82  180/  4/  4 1018.7F
RAPPAHANNOCK LGT 0300          130/  8/  9 1019.6R
YORK RVR RNG VA  0300   77     150/  9/ 10 1018.4F
YORKTOWN VA      0300   77 80  150/  4/  5 1018.8R
DOMINION TERM VA 0300   78     120/  6/  7 1019.1R
KIPTOPEKE VA     0300      80  150/  5/  6   N/A
CHES BAY BRIDGE  0300   76 76  120/  3/  6 1018.5S
CAPE HENRY VA    0300   75     140/  4/  5 1017.9S
WILLOUBY STN VA  0300          140/  5/  6 1018.3S
S CRANEY ISL VA  0300          200/  2/  4 1019.0S
CAPE HENRY BUOY  0200      76                N/A     2/ 7
CAPE CHARLES BUO 0300      76                N/A     2/11
OFFSHORE WE BUOY 0200      77                N/A     2/ 8
64NM E OF VA BCH 0300   77 78  180/  8/ 10 1019.1F   2/ 8   2/ 8
DUCK PIER NC     0300   78 73  190/  8/ 12 1018.5S
44056 DUCK FRF   0200                        N/A     2/ 8
OREGON INLET NC  0300   78 80  190/ 11/ 14 1019.5S
HATTERAS NC      0300   78 82  200/  5/  9 1020.1F
DIAMOND SHLS NC  0300          VRB 17/ 19  1019.4F   4/ 8   2/ 8
CAPE LOOKOUT NC  0200   79     190/ 15/ 17 1019.5R
$$


USA.gov is the U.S. government's official web portal to all federal, state and local government web resources and services.